Regional Weather Roundup
Issued by NWS

Home | Current Version | Previous Version | Text Only | Print | Product List | Glossary On
Versions: 1 2 3 4 5 6 7 8 9 10 11 12 13 14 15 16 17 18 19 20 21 22 23 24 25 26 27 28 29 30 31 32 33 34 35 36 37 38 39 40 41 42 43 44 45 46 47 48 49 50
000
ASUS46 KLOX 300313
RWRCA

SOUTHERN CALIFORNIA WEATHER ROUNDUP
NATIONAL WEATHER SERVICE OXNARD CALIFORNIA
800 PM PDT FRI APR 29 2016

NOTE: "FAIR" INDICATES FEW OR NO CLOUDS BELOW 12,000 FEET WITH NO
SIGNIFICANT WEATHER AND/OR OBSTRUCTIONS TO VISIBILITY.

  -  STATIONS PRECEEDED BY AN ASTERISK (*) ARE NOT NWS OR FAA
     STATIONS AND ARE NOT SUBJECT TO NWS AND FAA QUALITY CONTROL.

CAZ041-042-087-300400-
LA AND ORANGE COUNTY COASTAL AREAS


CITY           SKY/WX    TMP DP  RH WIND       PRES   REMARKS
L.A. DOWNTOWN  CLEAR     59  51  75 CALM      29.91S
L.A. AIRPORT   PTCLDY    57  50  77 W9        29.92S
LONG BEACH     CLEAR     60  52  74 NW9       29.91S

CITY           SKY/WX    TMP DP  RH WIND       PRES   REMARKS
AVALON           N/A     59 N/A N/A SE5         N/A
FULLERTON      CLEAR     63  51  65 CALM      29.90S
*GETTY CENTER    N/A    N/A N/A N/A S3          N/A
HAWTHORNE      CLEAR     59  50  72 W8        29.92S
*LEO CARRILLO    N/A     56  48  75 W7G21       N/A
*LOS ALAMITOS  FAIR      59  53  79 SW8       29.91S
*REDONDO BEACH   N/A     58  51  77 W2        29.92S
SANTA ANA      PTCLDY    59  51  75 SW8       29.92F
STA MONICA APT CLEAR     58  51  78 SW7       29.91S
*STA MON PIER    N/A     57  53  87 NW13      29.85S
TORRANCE       PTCLDY    59  54  82 W7        29.93S
*UCLA            N/A     55  48  76 NW2       29.89R

$$

CAZ547-548-048-300400-
LA COUNTY VALLEYS AND INLAND EMPIRE


CITY           SKY/WX    TMP DP  RH WIND       PRES   REMARKS
BURBANK        CLEAR     59  48  67 S8        29.90S
VAN NUYS       CLEAR     61  48  62 SE7       29.89S

CITY           SKY/WX    TMP DP  RH WIND       PRES   REMARKS
CORONA AIRPORT CLEAR     61  52  72 NW9       29.91R
*CHATSWORTH      N/A     60  49  66 W3        29.91S
CHINO          PTCLDY    61  51  70 SW12      29.92R
*CLAREMONT       N/A     58  51  77 SW6         N/A
MARCH AFB      CLEAR     60  49  66 NW12      29.90R
*NORTHRIDGE      N/A     61  46  59 S1          N/A
ONTARIO        MOCLDY    61  50  67 SW10      29.91R
*PASADENA        N/A     59  52  77 E2          N/A
POMONA         CLOUDY    59  50  72 W12       29.94R
RIVERSIDE      CLEAR     61  50  67 W12       29.90S
SAN BERNARDINO PTCLDY    64  48  55 W9        29.91R
*SAN GABRIEL     N/A     60  51  70 SW2       29.98S
*SAUGUS          N/A     67  49  52 S12         N/A
*WHITEMAN AP   CLEAR     59  46  63 SE8       29.93
*WHITTIER HILL   N/A     57  51  79 SW6G20      N/A
*WOODLAND HILL   N/A     63  48  59 W3          N/A

$$

CAZ054-055-300400-
LA AND SAN BERNARDINO COUNTY MOUNTAINS


CITY           SKY/WX    TMP DP  RH WIND       PRES   REMARKS
*ACTON           N/A     59  46  63 CALM        N/A
*BIG BEAR AIRP CLEAR     41  36  81 W13       29.98S WCI  34
*BIG PINES       N/A     44  28  53 CALM        N/A
*CHILAO          N/A     47  42  81 CALM        N/A
MT WILSON NWS    N/A    N/A  41   0 MISG        N/A
SANDBERG       CLEAR     56  34  43 NW14      29.95F
*WARM SPRINGS    N/A     50  36  58 S2          N/A

$$

CAZ028-029-059-060-099-300400-
ANTELOPE VALLEY AND SURROUNDING AREAS


CITY           SKY/WX    TMP DP  RH WIND       PRES   REMARKS
LANCASTER      CLEAR     62  43  49 W15       29.87R
PALMDALE       CLEAR     62  45  53 SW14      29.88R
*POPPY PARK      N/A     59  43  56 SW13G28     N/A

CITY           SKY/WX    TMP DP  RH WIND       PRES   REMARKS
29 PALMS       PTCLDY    71  33  24 W13G25    29.84S
BARSTOW/DAGGET CLEAR     71  34  25 W33G43    29.77R
BISHOP         PTCLDY    61  29  29 NW8       29.79S
CHINA LAKE     PTCLDY    69  32  25 W24G33    29.71S
EDWARDS AFB    MOCLDY    68  33  27 W20G25    29.81S
MOJAVE         CLEAR     64  36  34 W14       29.87S
NEEDLES        CLEAR     78  38  23 SW7       29.69F
VICTORVILLE    CLEAR     64  30  27 W20       29.87R

$$

CAZ039-040-300400-
VENTURA AND SANTA BARBARA COUNTY COAST


CITY           SKY/WX    TMP DP  RH WIND       PRES   REMARKS
CAMARILLO      MOCLDY    57  49  74 SW5       29.91F
NWS OXNARD       N/A     56  49  78 W3        29.90F
OXNARD AIRPORT CLEAR     57  51  80 W15       29.90F
*POINT MUGU    PTCLDY    56  50  80 W15       29.92F
SBA APT/GOLETA PTCLDY    59  48  67 VRB3      29.88F
*SANTA BARBARA   N/A     60  49  66 CALM      29.98R
*VENTURA         N/A     56  51  84 CALM      29.89F

$$

CAZ044-045-300400-
VENTURA COUNTY VALLEYS


CITY           SKY/WX    TMP DP  RH WIND       PRES   REMARKS
*SIMI VALLEY     N/A     56  49  79 CALM      29.89R
*WESTLAKE VILL   N/A     53  47  78 CALM      29.90S
*OJAI            N/A     57  49  74 CALM      29.85R
*FILLMORE        N/A     59  49  70 CALM      29.81S

$$

CAZ053-300400-
VENTURA COUNTY MOUNTAINS


CITY           SKY/WX    TMP DP  RH WIND       PRES   REMARKS

$$

CAZ034-035-036-300400-
CENTRAL COAST AND SANTA YNEZ VALLEY


CITY           SKY/WX    TMP DP  RH WIND       PRES   REMARKS
SAN LUIS OBISP CLOUDY    55  49  80 NW12      29.97F
SANTA MARIA    CLOUDY    54  48  80 NW16      29.98F

CITY           SKY/WX    TMP DP  RH WIND       PRES   REMARKS
*CAL POLY SLO    N/A     54  50  87 SW3G12      N/A
*LOMPOC        CLOUDY    55  49  80 NW10      29.99F
*PISMO BEACH     N/A     56  50  81 W1        29.98S
*SANTA YNEZ    CLOUDY    54  45  71 N10       29.98R

$$

CAZ037-038-051-300400-
SAN LUIS OBISPO COUNTY INTERIOR AND CUYAMA VALLEY


CITY           SKY/WX    TMP DP  RH WIND       PRES   REMARKS
*CUYAMA          N/A     58  40  52 W12       29.86R
PASO ROBLES    CLEAR     61  42  49 W9        29.92S

$$

CAZ032-033-061-300400-
SOUTHERN DESERTS


CITY           SKY/WX    TMP DP  RH WIND       PRES   REMARKS
BLYTHE         CLEAR     81  38  21 SW22G28   29.71S
IMPERIAL       CLEAR     76  45  33 W18       29.74S
PALM SPRINGS   CLEAR     77  41  27 NW15G21   29.74F
THERMAL        CLEAR     78  46  32 N18G29    29.71R

$$

ELSEWHERE ACROSS THE WESTERN UNITED STATES AND MEXICO


CITY           SKY/WX    TMP DP  RH WIND       PRES   REMARKS
DENVER, CO     LGT SNOW  33  30  88 N6        29.90R VSB 1   WCI  28
GRAND CANYON,  MOCLDY    43  33  68 CALM      29.92R
HONOLULU, HI   MOSUNNY   82  64  54 NE12G23   30.03S
KAHULUI, MAUI  MOSUNNY   79  68  69 E18G31    30.01S
LAKE TAHOE, CA CLOUDY    45  24  43 VRB3      29.95R
LAS VEGAS, NV  PTCLDY    74  30  19 SW7       29.67S
MAMMOTH LAKES, FAIR      46  24  43 W13G28    29.93F
MEXICO CITY, M MOCLDY    73  25  16 S6        30.20R
PHOENIX, AZ    PTCLDY    76  36  23 SW12      29.75R
PORTLAND, OR   MOCLDY    56  49  77 W8        30.19R
RENO, NV       LGT RAIN  45  38  76 W17G28    29.96R
SALT LAKE CITY PTCLDY    53  36  52 NW9       29.84R
SAN DIEGO, CA  CLOUDY    62  51  67 W5        29.95F
SAN FRANCISCO, MOCLDY    54  45  71 W38G48    29.93S
SAN JOSE, CA   PTCLDY    60  44  55 W6        29.95F
SEATTLE, WA    PTCLDY    58  42  55 CALM      30.18R
TIJUANA, MEX   MOCLDY    59  48  67 W8        29.97S

$$

STATION/POSITION TIME  TEMP    WIND        PRES    VSBY  WAVE
                       AIR SEA DIR/SP/G                  HT/PER
                 (UTC) (F)     (DEG/KT/KT) (MB)    (MI)  (FT/S)
POINT ARGUELLO B NOT AVBL
WEST SANTA BARBA 0250   53 52  320/ 17/ 21 1014.4F         9/10
POINT CONCEPTION NOT AVBL
EAST SANTA BARBA 0200   56 56  280/ 21/ 27 1012.9F
SANTA MONICA BAY 0250   57 60  270/  6/  8 1013.0F         4/ 7



USA.gov is the U.S. government's official web portal to all federal, state and local government web resources and services.